FW0386 Weather Reports


Display with metric or nautical units.
time (UTC)temp
F
wind
direction
speed
MPH
gust
MPH
rain 1hr
in
rain 24hr
in
rain mn
in
humidity
%
barometer
mb
20260904044540 63 243 0.0 2.0 0.00 0.00 0.00 76 1018.2
20260904043047 63 248 0.0 2.0 0.00 0.00 0.00 76 1018.2
20260904041521 63 236 0.0 3.0 0.00 0.00 0.00 76 1018.2
20260904040044 63 261 0.0 5.0 0.00 0.00 0.00 76 1018.4
20260904034559 64 307 0.0 3.0 0.00 0.00 0.00 75 1018.4
20260904033105 64 278 0.0 5.0 0.00 0.00 0.00 74 1018.5
20260904031522 64 285 1.0 3.0 0.00 0.00 0.00 74 1018.5
20260904030025 64 271 0.0 2.0 0.00 0.00 0.00 74 1018.5
20260904024541 64 238 0.0 2.0 0.00 0.00 0.00 74 1018.6
20260904023012 64 274 0.0 2.0 0.00 0.00 0.00 75 1018.5
20260904021524 63 254 0.0 3.0 0.00 0.00 0.00 75 1018.4
20260904020032 63 285 0.0 3.0 0.00 0.00 0.00 76 1018.5
20260904014550 63 234 0.0 1.0 0.00 0.00 0.00 75 1018.4
20260904013000 64 285 0.0 3.0 0.00 0.00 0.00 75 1018.4
20260904011601 64 255 0.0 2.0 0.00 0.00 0.00 75 1018.5
20260904010021 64 267 0.0 2.0 0.00 0.00 0.00 75 1018.6
20260904004536 63 230 0.0 2.0 0.00 0.00 0.00 75 1018.7
20260904003056 64 222 0.0 3.0 0.00 0.00 0.00 75 1018.8
20260904001607 63 277 1.0 6.0 0.00 0.00 0.00 75 1019.0
20260904000009 63 248 0.0 5.0 0.00 0.00 0.00 75 1019.0
20260903234521 63 241 0.0 4.0 0.00 0.00 0.00 75 1019.0
20260903233045 63 191 1.0 5.0 0.00 0.00 0.00 76 1019.0
20260903231603 63 254 0.0 3.0 0.00 0.00 0.00 77 1019.3
20260903230005 62 268 0.0 1.0 0.00 0.00 0.00 77 1019.2
20260903224519 62 260 0.0 2.0 0.00 0.00 0.00 77 1019.2
20260903223028 61 268 0.0 1.0 0.00 0.00 0.00 78 1019.4
20260903221545 61 271 0.0 0.0 0.00 0.00 0.00 78 1019.4
20260903220001 61 271 0.0 1.0 0.00 0.00 0.00 78 1019.5
20260903214515 61 271 0.0 0.0 0.00 0.00 0.00 77 1019.5
20260903213036 62 270 0.0 0.0 0.00 0.00 0.00 75 1019.6
20260903211545 62 270 0.0 1.0 0.00 0.00 0.00 74 1019.6
20260903210043 63 257 0.0 4.0 0.00 0.00 0.00 73 1020.0
20260903204512 64 244 0.0 4.0 0.00 0.00 0.00 71 1020.0
20260903203007 65 174 1.0 6.0 0.00 0.00 0.00 70 1019.9
20260903201529 65 278 2.0 11.0 0.00 0.00 0.00 70 1020.0
20260903200010 65 296 1.0 6.0 0.00 0.00 0.00 69 1020.0
20260903194529 65 271 1.0 5.0 0.00 0.00 0.00 68 1019.9
20260903193055 66 283 0.0 5.0 0.00 0.00 0.00 66 1019.8
20260903191506 66 251 0.0 3.0 0.00 0.00 0.00 64 1019.8
20260903190031 67 278 0.0 1.0 0.00 0.00 0.00 63 1019.5
20260903184546 67 262 0.0 4.0 0.00 0.00 0.00 62 1019.3
20260903183056 68 271 0.0 2.0 0.00 0.00 0.00 61 1019.1
20260903181515 68 254 0.0 3.0 0.00 0.00 0.00 60 1019.0
20260903180001 69 277 0.0 2.0 0.00 0.00 0.00 59 1018.8
20260903174523 69 281 0.0 4.0 0.00 0.00 0.00 58 1018.9
20260903173011 70 272 0.0 6.0 0.00 0.00 0.00 57 1018.7
20260903171541 70 243 1.0 8.0 0.00 0.00 0.00 56 1018.6
20260903170052 71 237 1.0 5.0 0.00 0.00 0.00 56 1018.8
20260903164555 71 295 1.0 7.0 0.00 0.00 0.00 55 1018.8
20260903163011 71 289 2.0 9.0 0.00 0.00 0.00 54 1018.7
20260903161520 72 317 2.0 7.0 0.00 0.00 0.00 53 1018.7
20260903160049 72 229 1.0 8.0 0.00 0.00 0.00 51 1018.8
20260903154555 73 302 3.0 11.0 0.00 0.00 0.00 50 1018.8
20260903153007 73 283 3.0 11.0 0.00 0.00 0.00 48 1018.9
20260903151511 74 277 2.0 8.0 0.00 0.00 0.00 46 1018.8
20260903150038 74 282 2.0 10.0 0.00 0.00 0.00 45 1018.7
20260903144554 74 356 4.0 10.0 0.00 0.00 0.00 44 1018.5
20260903143009 75 290 1.0 10.0 0.00 0.00 0.00 43 1018.5
20260903141514 75 263 1.0 8.0 0.00 0.00 0.00 42 1018.6
20260903140047 75 229 4.0 15.0 0.00 0.00 0.00 42 1018.7
20260903134620 75 233 3.0 8.0 0.00 0.00 0.00 40 1018.7
20260903133013 75 260 3.0 10.0 0.00 0.00 0.00 40 1018.7
20260903131511 76 243 2.0 10.0 0.00 0.00 0.00 40 1018.5
20260903130034 74 212 3.0 11.0 0.00 0.00 0.00 42 1018.6
20260903124539 75 255 4.0 9.0 0.00 0.00 0.00 44 1018.7
20260903123053 75 211 3.0 11.0 0.00 0.00 0.00 43 1018.9
20260903121514 75 234 2.0 12.0 0.00 0.00 0.00 42 1018.9
20260903120046 75 345 3.0 12.0 0.00 0.00 0.00 41 1019.2
20260903114606 75 39 3.0 10.0 0.00 0.00 0.00 48 1019.2
20260903113009 75 288 3.0 11.0 0.00 0.00 0.00 50 1019.6
20260903111524 74 299 3.0 11.0 0.00 0.00 0.00 50 1019.8
20260903110031 75 285 3.0 10.0 0.00 0.00 0.00 48 1019.6
20260903104550 74 281 4.0 11.0 0.00 0.00 0.00 49 1019.8
20260903103045 72 241 3.0 9.0 0.00 0.00 0.00 51 1019.8
20260903101505 72 228 3.0 11.0 0.00 0.00 0.00 51 1019.8
20260903100023 72 260 2.0 10.0 0.00 0.00 0.00 52 1019.8
20260903094518 72 225 2.0 10.0 0.00 0.00 0.00 53 1020.0
20260903093032 73 232 4.0 13.0 0.00 0.00 0.00 51 1020.1
20260903091552 73 223 2.0 12.0 0.00 0.00 0.00 54 1020.1
20260903090056 70 221 2.0 7.0 0.00 0.00 0.00 56 1020.5
20260903084514 72 330 2.0 6.0 0.00 0.00 0.00 55 1020.2
20260903083022 71 281 2.0 12.0 0.00 0.00 0.00 57 1020.3
20260903081543 71 236 2.0 8.0 0.00 0.00 0.00 57 1020.3
20260903080055 71 230 1.0 8.0 0.00 0.00 0.00 58 1020.4
20260903074507 71 294 4.0 12.0 0.00 0.00 0.00 56 1020.5
20260903073023 69 292 1.0 7.0 0.00 0.00 0.00 61 1020.4
20260903071526 67 221 1.0 5.0 0.00 0.00 0.00 65 1020.4
20260903070043 65 108 0.0 1.0 0.00 0.00 0.00 71 1020.5
20260903064555 62 113 0.0 0.0 0.00 0.00 0.00 74 1020.7
20260903063019 61 113 0.0 0.0 0.00 0.00 0.00 76 1020.6
20260903061533 60 113 0.0 1.0 0.00 0.00 0.00 79 1020.5
20260903060036 58 113 0.0 1.0 0.00 0.00 0.00 81 1020.6
20260903054606 57 145 0.0 0.0 0.00 0.00 0.00 82 1020.6
20260903053038 57 145 0.0 0.0 0.00 0.00 0.00 83 1020.5
20260903051544 56 145 0.0 0.0 0.00 0.00 0.00 84 1020.4